Skip Page Navigation
NASA JPL Caltech
NASA Logo - Jet Propulsion Laboratory + View the NASA Portal
+ Near-Earth Object (NEO) Program
Search JPL
JPL Home Earth Solar System Stars & Galaxies Technology
JPL Solar System Dynamics
BODIES ORBITS EPHEMERIDES TOOLS PHYSICAL DATA DISCOVERY FAQ SITE MAP
JPL Small-Body Database Browser
Search: [ help ]  
10992 Veryuslaviya (1974 SF)
Classification: Main-belt Asteroid          SPK-ID: 2010992
Ephemeris | Orbit Diagram | Orbital Elements | Physical Parameters | Discovery Circumstances | Close-Approach Data ]

[ show orbit diagram ]
Orbital Elements at Epoch 2457000.5 (2014-Dec-09.0) TDB
Reference: JPL 14 (heliocentric ecliptic J2000)
 Element Value Uncertainty (1-sigma)   Units 
e .242113239168136 6.4837e-08  
a 2.36250834271421 1.0362e-08 AU
q 1.790513795297928 1.5118e-07 AU
i 4.95810839199704 6.5319e-06 deg
node 187.4789816819129 5.3533e-05 deg
peri 175.6266967110109 5.4574e-05 deg
M 22.9662719459034 8.9976e-06 deg
tp 2456915.885176017262
(2014-Sep-15.38517602)
3.3116e-05 JED
period 1326.350950887317
3.63
8.7264e-06
2.389e-08
d
yr
n .2714213758878547 1.7857e-09 deg/d
Q 2.934502890130492 1.2871e-08 AU
  Orbit Determination Parameters
   # obs. used (total)      775  
   data-arc span      14741 days (40.36 yr)  
   first obs. used      1974-09-19  
   last obs. used      2015-01-28  
   planetary ephem.      DE431  
   SB-pert. ephem.      SB431-BIG16  
   condition code      0  
   fit RMS      .55869  
   data source      ORB  
   producer      Otto Matic  
   solution date      2015-Mar-09 14:24:56  

Additional Information
 Earth MOID = .788345 AU 
 T_jup = 3.505 
[ show covariance matrix ]

Ephemeris | Orbit Diagram | Orbital Elements | Physical Parameters | Discovery Circumstances | Close-Approach Data ]

Physical Parameter Table
Parameter Symbol Value Units Sigma Reference Notes
absolute magnitude H 15.2 mag n/a MPO302133  

10992 Veryuslaviya           Discovered 1974 Sept. 19 by L. I. Chernykh at the Crimean Astrophysical Observatory.
This name is formed from the names of three members of the Chubenko family: Vera Ivanovna (b. 1951) and her sons Vyacheslav (b. 1973), an astronomer and fanciful writer, and Yury (b. 1978), a journalist who made a great contribution to the social rehabilitation of children and people with specific physical facilities.
NOTE: some special characters may not display properly (any characters within {} are an attempt to place the proper accent above a character)
Reference: 20070402/MPCPages.arcLast Updated: 2007-07-05

[ show close-approach data ]
Alternate Designations
 1974 SF = 1985 UC2 = 1985 UV3 
Ephemeris | Orbit Diagram | Orbital Elements | Physical Parameters | Discovery Circumstances | Close-Approach Data ]
ABOUT SSD CREDITS/AWARDS PRIVACY/COPYRIGHT GLOSSARY LINKS
FirstGov 2015-Mar-28 11:04 UT
(server date/time)  
NASA Home Page
Site Manager:   Ryan S. Park
Webmaster  Alan B. Chamberlin